Overview Statistics Trail Chart Weather Telemetry Raw packets
 

This is the latest recevied weather packets stored in our database for station/object F8KHU-13. If no packets are shown the sender has not sent any weather packets the latest 10 day(s).

<< 37 38 39 40 41 42 43 >>
Time Temp. Humidity Pressure Rain* Wind** Luminosity Snow
1788204324 17.22° C 30% 1017.8 hPa 0 mm - 0 W/m² -
1788203444 17.22° C 30% 1017.6 hPa 0 mm - 0 W/m² -
1788203424 16.67° C 30% 1017.6 hPa 0 mm - 0 W/m² -
1788202564 17.78° C 29% 1017.4 hPa 0 mm - 0 W/m² -
1788202544 17.78° C 30% 1017.4 hPa 0 mm - 0 W/m² -
1788202524 17.78° C 29% 1017.3 hPa 0 mm - 0 W/m² -
1788201664 17.78° C 29% 1017.2 hPa 0 mm - 0 W/m² -
1788201644 17.78° C 29% 1017.3 hPa 0 mm - 0 W/m² -
1788201625 17.78° C 29% 1017.2 hPa 0 mm - 0 W/m² -
1788200764 18.33° C 28% 1017 hPa 0 mm - 0 W/m² -
1788200744 18.33° C 28% 1017 hPa 0 mm - 0 W/m² -
1788199865 18.89° C 28% 1016.7 hPa 0 mm - 0 W/m² -
1788199845 18.89° C 28% 1016.7 hPa 0 mm - 0 W/m² -
1788198965 20° C 28% 1016.5 hPa 0 mm - 0 W/m² -
1788198945 20° C 28% 1016.5 hPa 0 mm - 0 W/m² -
1788198065 18.89° C 28% 1016.3 hPa 0 mm - 0 W/m² -
1788198045 20° C 28% 1016.4 hPa 0 mm - 0 W/m² -
1788197165 20° C 28% 1016.3 hPa 0 mm - 0 W/m² -
1788197145 20° C 28% 1016.3 hPa 0 mm - 0 W/m² -
1788197125 20° C 28% 1016.3 hPa 0 mm - 0 W/m² -
1788196265 20° C 29% 1016.1 hPa 0 mm - 0 W/m² -
1788196245 20° C 29% 1016.2 hPa 0 mm - 0 W/m² -
1788195365 20° C 30% 1016.1 hPa 0 mm - 0 W/m² -
1788195345 20° C 30% 1016 hPa 0 mm - 0 W/m² -
1788195325 20° C 30% 1016 hPa 0 mm - 0 W/m² -

* Rain latest hour (hover to see other rain measurements)
** Current wind speed in m/s (hover to see current wind gust speed)